Wind_Speed
34 33 31 29 27 25 24 24 25 28 32 35 38 40 38 32 27 27 30 35 36 35 34 31 30 30 29 27 24 21 19 17 15 13 10 9 8 6 5 4 4 5 6 7 8 10 11 12 13 13 13 13 12 12 11 10 10 10 10 10 10 11 11 12 12 13 14 15 16
34 32 30 28 27 25 24 25 26 29 33 36 38 39 36 30 27 29 32 35 36 34 32 30 30 30 28 26 23 21 19 17 14 12 10 9 8 6 5 5 5 5 6 7 9 10 11 12 12 13 13 13 12 11 11 10 10 10 10 11 11 11 12 12 13 13 14 15 16
33 32 30 28 27 25 25 26 28 30 33 36 37 36 33 29 28 30 33 35 34 32 31 30 30 29 28 25 22 20 18 16 14 12 10 9 8 6 5 5 5 5 6 8 9 10 11 12 12 13 13 12 12 11 11 10 10 10 10 11 11 12 12 13 13 14 15 16 16
33 31 30 28 26 25 26 27 28 30 33 35 35 33 31 29 29 31 32 32 32 31 31 31 31 29 27 24 22 20 18 15 13 12 10 9 8 6 5 5 5 6 7 8 9 10 11 12 12 13 12 12 12 11 11 11 11 11 11 11 12 12 13 14 14 15 16 16 17
32 30 29 27 26 25 26 27 28 30 33 34 34 32 30 30 30 31 31 31 32 31 31 31 30 28 26 23 21 19 17 15 13 12 10 9 8 6 5 5 5 6 7 8 9 10 11 12 12 12 12 12 11 11 10 11 11 11 12 12 12 13 13 14 15 16 16 17 18
31 29 28 26 26 26 26 27 29 31 33 33 32 31 31 31 31 32 32 32 32 31 30 30 29 27 25 23 20 18 16 15 13 11 10 9 7 6 5 5 5 6 7 8 9 10 11 11 12 12 12 11 10 10 10 10 11 12 13 14 14 14 14 15 16 17 17 18 19
29 28 27 26 26 26 27 28 30 32 33 32 30 30 30 31 32 33 33 32 30 30 31 30 28 26 24 22 20 18 16 14 13 11 10 8 7 6 5 5 5 6 7 8 9 10 10 11 11 12 11 11 10 10 10 10 11 12 13 14 15 16 16 16 17 17 18 19 19
28 27 27 26 26 26 27 29 31 32 32 30 29 29 30 31 32 32 31 30 30 31 31 29 27 25 23 21 19 17 15 14 12 11 9 8 7 6 5 5 6 6 7 8 9 10 10 11 11 11 11 11 10 10 10 11 11 12 13 14 15 16 17 17 18 18 19 20 20
27 27 26 25 25 26 28 29 30 31 30 29 28 29 31 32 32 31 29 29 30 31 30 28 26 24 22 20 18 16 15 13 12 10 9 8 7 6 5 6 6 6 7 8 9 10 10 11 11 11 10 10 10 10 11 11 12 12 13 14 15 16 17 18 18 19 20 20 20
27 27 26 26 26 27 28 29 29 29 28 27 28 30 32 33 32 29 29 30 31 30 29 27 25 23 21 19 17 16 14 13 11 10 9 7 6 6 6 6 6 6 7 8 9 9 10 11 11 10 10 10 10 11 11 12 12 13 14 15 16 16 17 18 19 19 20 20 20
27 27 26 26 27 27 28 28 28 27 27 27 29 31 32 32 30 29 29 30 31 30 28 26 24 22 21 19 17 15 14 12 11 9 8 7 6 6 5 6 6 6 7 8 9 9 10 10 10 10 10 10 11 11 12 13 13 14 15 16 16 17 18 18 19 19 20 20 20
27 26 26 26 27 28 28 28 27 26 27 28 30 32 32 31 30 29 30 31 30 29 27 25 24 22 20 18 16 15 13 12 10 9 8 7 6 6 5 5 6 6 7 8 9 9 10 9 9 9 10 11 11 12 13 13 14 15 15 16 17 17 18 18 19 19 20 21 21
26 26 26 26 27 27 27 27 26 27 28 29 31 32 31 30 30 30 31 31 30 28 26 25 23 21 19 17 16 14 13 11 10 9 8 7 6 5 5 5 6 6 7 8 8 9 9 9 9 9 10 11 12 13 13 14 15 15 16 16 17 17 18 18 19 19 20 21 21
26 26 26 26 27 27 27 27 27 28 29 30 31 31 30 30 31 32 32 31 29 27 26 24 22 20 18 16 15 14 12 11 10 8 7 6 5 5 5 5 6 6 7 8 8 9 9 9 9 9 10 11 12 13 14 14 15 16 16 17 17 18 18 18 19 20 20 21 21
27 26 27 27 27 28 28 28 28 29 29 30 30 30 31 31 32 32 32 30 28 26 25 23 21 20 18 16 14 13 12 10 9 8 6 6 5 5 5 5 6 6 7 8 8 8 8 8 9 10 10 11 12 13 14 15 16 16 17 17 18 18 19 19 20 20 20 20 21
27 27 28 28 29 29 29 29 29 29 29 29 30 31 32 33 33 32 31 29 27 26 24 22 21 19 17 16 14 12 11 10 8 7 6 5 4 4 4 5 6 6 7 8 8 8 8 9 9 10 11 12 12 13 14 15 16 17 17 18 18 19 19 19 20 20 20 21 21
27 28 28 29 30 30 30 30 29 29 30 30 31 32 33 34 33 32 30 28 26 25 23 21 19 18 16 15 13 12 10 9 7 6 5 4 4 4 5 5 6 7 7 8 8 9 9 10 10 11 12 12 13 14 15 16 16 17 18 18 19 19 19 20 20 20 21 21 21
27 28 28 29 30 30 30 30 30 31 32 32 33 34 34 34 32 31 29 27 25 23 22 20 18 17 15 14 12 11 9 8 6 5 4 4 4 4 5 5 6 7 7 8 8 9 10 11 11 12 13 14 14 15 16 16 17 17 18 18 19 19 19 19 20 20 21 21 22
27 27 28 28 29 30 30 30 31 32 34 35 35 35 34 33 31 29 28 26 24 22 20 19 17 16 14 13 11 10 9 7 6 5 4 4 4 4 5 5 6 7 7 8 8 9 10 11 12 13 14 15 16 16 17 17 18 18 18 18 19 19 19 19 20 20 21 22 22
26 27 27 27 28 29 30 31 32 34 35 36 36 35 34 32 30 28 27 25 23 21 19 17 16 15 13 12 10 9 8 6 5 4 4 4 4 4 5 6 6 7 8 8 9 10 11 12 13 14 15 16 16 17 17 18 18 18 18 19 19 19 19 19 20 21 21 22 23
26 26 26 27 28 29 31 32 34 35 36 36 36 34 32 31 29 27 25 24 22 20 18 16 15 14 12 11 9 8 7 5 4 4 4 4 4 5 5 6 7 7 8 9 10 11 12 13 14 15 15 16 17 17 17 17 17 18 19 19 19 19 19 19 20 21 21 22 22
25 26 27 28 29 30 31 33 35 36 36 36 34 33 31 29 28 26 24 22 21 19 18 16 14 13 11 10 8 7 5 4 4 3 4 4 4 5 5 6 7 8 9 10 11 12 13 14 14 15 16 16 16 16 16 16 17 18 18 19 19 19 20 20 21 21 22 22 22
27 27 28 29 30 31 33 35 36 36 35 34 33 31 29 28 26 25 23 21 20 18 17 15 13 12 10 9 7 6 5 4 3 3 4 4 4 5 6 7 7 9 10 11 12 12 13 14 15 16 16 16 16 16 15 16 17 17 18 19 19 20 20 21 22 22 22 22 22
28 29 30 30 31 33 34 35 35 35 34 32 31 29 28 26 25 23 22 20 18 17 15 14 12 11 9 8 6 5 4 3 3 3 3 4 5 5 6 7 8 9 10 11 12 13 14 15 15 16 16 16 16 17 17 17 18 18 19 19 19 20 21 22 23 23 23 22 22
29 30 30 32 33 34 35 35 34 33 32 30 29 27 26 25 23 22 20 19 17 15 14 12 11 9 8 7 5 4 4 3 3 3 3 4 5 6 7 8 9 10 11 12 13 14 15 15 16 16 17 17 17 18 19 19 19 20 20 20 20 21 22 23 23 23 22 21 21
29 30 31 32 33 34 34 34 32 31 29 28 27 26 24 23 22 21 19 18 16 14 12 11 9 8 7 6 5 4 3 3 3 3 4 4 5 6 8 9 10 11 12 13 14 15 16 16 17 17 18 18 19 19 20 20 20 21 21 21 21 21 22 22 23 22 21 21 21
30 31 32 33 33 33 33 32 30 29 27 26 25 24 23 22 21 19 18 16 14 13 11 10 9 7 6 5 4 3 3 3 3 4 4 5 6 7 9 10 11 12 13 14 15 16 16 17 18 18 18 19 19 20 20 21 21 22 22 21 21 21 21 21 21 21 21 21 21
30 31 32 32 32 32 31 29 28 26 25 25 24 23 22 20 19 17 16 14 13 11 10 9 8 6 5 4 3 3 3 3 3 4 5 6 7 8 9 11 12 13 14 14 15 16 17 18 18 19 19 20 20 20 21 22 22 23 22 21 20 20 20 20 21 21 21 21 21
30 31 31 32 31 30 28 27 26 25 24 24 23 22 20 19 17 16 14 13 11 10 9 8 7 5 4 4 3 3 3 3 4 5 6 7 8 9 10 11 13 14 15 15 16 17 18 18 19 19 20 20 21 21 22 22 23 23 22 20 19 19 19 20 20 21 21 21 20
30 30 31 30 29 28 26 25 25 24 24 23 22 20 19 17 16 14 13 11 10 9 8 7 6 5 4 4 3 3 3 4 5 6 7 7 8 9 11 12 13 14 15 16 17 17 18 19 19 20 20 21 21 22 22 23 24 23 22 21 19 19 19 20 20 21 21 20 19
31 31 30 29 28 27 26 26 25 24 23 21 20 19 17 16 14 13 12 10 9 8 7 6 5 4 4 3 3 3 4 5 6 6 7 8 9 10 12 13 14 15 16 17 17 18 19 19 20 20 21 21 22 22 23 24 24 23 22 20 19 19 19 20 20 20 19 19 18
32 31 30 29 28 28 27 26 24 23 22 20 19 17 16 15 13 12 11 9 8 7 6 5 4 4 3 3 4 4 5 6 6 7 7 8 10 11 13 14 16 16 17 17 18 19 19 20 20 21 21 22 22 23 24 24 24 23 21 19 18 18 18 19 19 19 18 18 18
32 31 30 30 29 29 27 25 23 22 20 19 17 16 14 13 12 11 10 8 7 6 5 4 4 4 4 4 5 5 5 6 6 7 8 10 11 12 14 15 17 17 18 18 19 19 20 20 21 21 22 23 23 24 25 25 24 22 20 18 17 17 18 18 18 18 18 17 17
32 31 31 31 29 28 25 23 22 20 19 17 16 14 13 12 11 10 8 7 6 5 4 4 4 4 4 5 5 5 6 6 7 8 9 11 12 13 14 16 17 18 19 19 19 20 20 21 22 22 23 24 24 25 25 25 23 20 18 17 16 16 17 17 17 17 17 17 16
31 31 31 29 27 25 23 22 20 19 17 16 14 13 12 11 10 9 7 6 5 4 4 4 4 4 5 5 5 5 6 7 8 9 10 12 13 14 15 17 18 19 20 20 20 20 21 21 22 23 24 24 25 26 25 24 22 19 17 16 15 16 16 16 16 16 16 15 15
30 30 28 26 24 23 21 20 19 17 16 14 13 12 11 10 9 8 6 5 4 4 4 4 4 4 4 5 5 5 7 8 9 11 12 13 14 15 16 17 19 20 21 21 20 21 21 22 23 24 24 25 26 26 25 23 21 18 17 15 15 15 15 15 15 15 14 14 15
29 27 25 23 21 20 19 18 17 15 14 13 12 11 10 9 8 6 5 4 4 4 4 4 4 4 5 5 6 6 8 9 10 12 13 14 14 15 16 17 18 20 21 21 21 21 22 23 23 24 25 26 26 25 24 22 19 18 16 15 14 14 14 14 14 13 14 15 16
26 24 22 20 19 18 17 16 15 14 13 12 11 10 9 7 6 5 5 4 4 4 4 4 4 4 5 6 7 8 9 10 11 12 14 15 16 16 17 18 19 20 21 22 22 22 22 23 24 25 25 25 25 24 22 20 18 17 15 14 13 13 13 13 13 13 14 16 19
23 21 19 18 17 17 16 15 14 13 12 11 10 9 7 6 6 5 4 4 3 4 4 4 5 5 6 7 8 9 10 11 12 13 14 15 17 17 18 18 19 20 21 22 22 23 23 24 24 25 25 24 24 22 21 19 17 15 14 13 13 12 12 12 13 14 16 18 19
21 19 17 16 16 15 14 14 13 12 11 9 9 8 7 6 5 4 4 3 3 4 5 5 5 6 6 7 9 10 12 13 14 14 15 16 17 18 19 19 19 20 21 22 23 23 24 24 24 24 24 23 22 21 19 17 15 14 12 12 12 13 13 14 15 16 17 18 18
19 18 17 16 15 14 13 12 12 11 9 9 8 7 6 5 4 4 3 3 4 4 4 5 5 6 7 8 10 11 13 14 15 16 17 17 18 19 19 20 20 20 21 22 22 23 23 23 23 23 22 21 20 19 17 16 14 12 11 12 12 14 15 16 16 16 17 17 16
Wind_Direction
218 219 218 216 215 213 211 211 212 212 210 206 202 199 197 198 204 208 205 197 193 193 194 195 196 196 196 195 195 196 199 201 200 197 195 197 202 212 226 245 268 288 302 311 319 326 331 334 338 340 340 339 336 332 327 323 320 317 315 314 314 315 316 316 317 318 320 321 320
217 217 216 215 214 212 210 209 210 210 208 206 203 201 200 203 205 204 199 195 195 195 195 195 195 194 194 194 194 197 199 200 198 195 194 198 206 216 230 248 270 288 302 311 320 326 330 334 337 339 338 335 332 328 323 319 317 315 314 313 314 314 315 315 315 315 317 318 318
215 215 214 213 212 210 207 207 208 208 206 205 203 202 203 204 202 198 196 196 197 198 196 194 193 192 193 193 195 197 198 198 196 195 196 201 209 220 233 252 272 289 302 312 320 325 330 333 336 337 336 333 329 324 320 317 315 314 312 312 313 313 314 313 313 314 315 316 317
213 213 212 212 210 208 206 207 207 207 205 204 202 202 201 199 196 195 196 199 202 201 196 192 191 191 192 193 196 197 197 196 194 195 199 205 212 222 236 254 274 290 303 313 321 326 330 333 335 335 333 330 326 321 318 316 315 313 311 310 310 311 311 312 313 314 315 315 316
212 212 211 210 209 207 207 209 208 207 205 202 201 200 198 195 193 196 201 205 204 199 193 190 190 190 191 194 196 197 196 194 194 196 201 208 215 226 240 258 276 291 304 314 321 326 329 332 333 332 330 327 322 319 316 315 313 311 310 309 309 309 311 312 313 314 314 315 315
210 210 210 208 207 207 208 210 209 206 203 201 199 198 196 195 196 199 203 205 200 193 189 188 189 190 192 195 196 196 195 194 195 198 203 210 218 229 243 260 278 293 305 314 321 326 329 331 331 329 326 323 319 316 313 312 311 311 310 310 311 312 313 313 313 313 314 314 316
209 208 207 205 205 206 209 210 208 205 201 199 198 197 196 197 199 201 202 199 193 188 186 187 188 191 193 195 195 195 194 195 197 200 206 213 221 232 246 263 281 295 306 315 321 325 327 328 328 326 323 320 316 313 312 311 311 310 311 312 312 314 315 314 314 314 314 315 316
208 207 205 203 204 207 210 210 206 202 199 197 198 198 199 200 201 201 198 192 187 184 184 186 189 192 194 195 195 194 194 196 198 202 208 215 224 236 250 267 284 296 307 315 321 325 326 326 326 323 320 317 314 311 310 311 310 310 310 311 312 313 314 314 314 314 315 316 317
205 203 202 202 205 208 209 208 204 200 198 197 199 200 201 202 202 198 192 185 182 182 184 186 189 192 194 194 194 194 195 197 200 205 210 218 227 240 255 271 286 298 308 315 321 324 325 324 323 321 318 315 312 311 311 311 310 310 310 310 311 312 314 314 315 316 317 317 318
201 200 199 201 204 207 206 203 200 198 198 197 198 200 201 201 198 192 184 181 180 181 183 186 189 191 193 193 193 194 196 198 202 207 214 222 231 244 259 275 288 301 310 316 320 322 323 323 321 319 316 314 311 310 310 310 310 311 311 311 311 312 314 314 315 316 317 318 317
199 197 198 200 202 203 202 198 197 196 196 196 198 199 199 197 191 185 180 179 179 181 184 188 190 191 192 192 193 194 197 200 205 210 217 225 235 247 263 277 291 303 311 316 319 321 321 321 319 317 314 312 311 311 311 312 312 312 312 313 313 313 314 315 316 316 316 316 316
198 197 197 199 200 199 198 195 194 193 193 194 197 198 195 190 184 180 178 178 180 183 186 188 190 191 192 192 193 195 198 202 207 213 220 228 239 252 266 281 294 304 311 315 318 319 320 318 318 316 314 313 312 313 313 314 314 314 314 314 314 315 315 315 315 315 315 315 315
197 196 196 197 197 195 194 192 191 191 191 193 195 193 189 183 179 177 177 179 181 184 187 189 190 191 192 193 194 196 200 204 210 216 223 231 243 256 271 285 297 306 311 314 316 318 318 317 316 314 314 313 313 314 314 314 314 314 314 314 314 315 315 314 313 313 314 314 315
196 195 194 193 192 191 189 188 188 189 191 192 191 187 181 177 176 176 178 180 183 186 188 189 190 190 191 193 195 198 202 207 212 218 225 234 246 260 275 289 300 307 311 313 315 316 316 315 314 314 313 313 312 313 313 313 313 313 313 313 313 313 313 313 313 313 314 314 315
194 193 192 190 188 187 186 186 188 190 190 189 185 180 176 175 175 177 179 182 185 187 188 189 189 190 191 193 195 199 203 208 213 219 226 236 250 265 280 293 301 307 310 312 313 314 313 313 313 313 312 312 311 311 312 312 312 312 312 312 313 313 313 313 313 314 314 314 314
192 191 189 187 185 184 185 186 188 188 186 182 178 176 175 175 175 177 180 183 185 187 189 190 190 190 191 193 196 200 204 208 213 219 228 239 255 271 285 295 301 305 308 311 311 311 312 312 312 312 312 312 311 311 311 311 312 312 312 313 313 314 314 314 315 315 314 315 315
191 189 187 185 184 184 185 186 187 185 180 177 175 175 175 175 176 178 181 183 186 188 189 190 191 192 192 194 198 201 205 208 214 220 230 244 261 276 288 296 301 304 307 309 310 311 312 313 313 313 313 312 312 311 311 312 312 313 314 315 315 316 316 316 316 315 315 315 315
190 187 186 186 185 185 185 185 184 180 176 174 174 175 175 176 177 179 181 184 186 188 189 190 191 192 193 195 198 202 205 208 214 223 234 249 265 280 289 296 300 304 307 308 310 312 314 314 314 315 314 314 314 313 313 314 314 315 316 317 317 317 316 316 315 315 315 315 315
188 186 185 185 185 185 184 182 180 176 174 174 174 175 176 177 179 180 182 184 186 188 189 189 190 191 193 196 199 202 205 209 216 228 240 254 271 282 290 295 300 303 305 308 311 313 314 315 316 316 316 316 316 316 316 317 318 318 318 318 317 317 316 314 313 313 314 315 315
186 184 183 183 183 182 180 179 177 175 174 174 174 175 176 178 180 182 182 183 184 186 188 189 190 191 193 196 198 201 205 211 220 232 246 261 274 283 290 295 299 302 305 308 311 313 314 315 316 317 317 317 317 318 319 319 319 319 318 317 316 315 314 313 312 312 313 314 315
181 180 179 179 179 178 177 176 175 175 174 174 174 175 177 179 181 182 183 183 184 185 186 188 190 192 193 196 197 200 204 213 223 236 251 267 277 284 289 295 300 303 307 310 312 314 315 316 317 318 318 319 320 320 321 320 319 317 316 315 314 313 312 311 310 311 312 313 313
175 175 175 176 176 176 176 175 175 175 174 174 175 176 178 179 181 182 182 183 184 184 186 187 189 191 193 194 195 198 206 216 228 241 256 270 279 285 290 297 301 306 309 312 314 315 317 318 319 319 319 320 321 321 319 316 314 313 312 312 311 310 309 309 309 310 312 312 313
170 172 173 174 175 175 175 175 175 174 174 175 176 178 179 180 181 181 182 184 185 185 186 187 188 189 191 192 195 200 208 220 233 246 260 272 279 286 292 298 304 307 310 313 315 317 318 319 319 319 319 319 319 316 313 311 310 309 309 309 308 308 307 308 309 311 313 313 313
171 172 173 174 174 174 174 175 174 174 174 175 177 178 179 180 181 182 183 185 186 186 187 188 189 189 189 191 195 202 212 223 235 249 263 274 280 288 295 301 306 308 311 314 316 317 318 318 318 318 317 316 315 313 311 310 310 310 310 309 308 307 308 309 311 313 314 315 314
173 174 173 173 172 173 173 174 174 174 175 177 178 179 180 181 182 184 184 185 185 186 186 187 188 188 189 191 198 206 216 227 240 252 266 276 284 292 299 304 308 309 312 314 316 317 317 317 317 316 315 314 313 312 312 312 313 314 314 312 311 310 311 312 314 315 315 314 313
175 174 172 171 172 172 173 173 174 175 176 178 179 180 181 182 184 185 185 185 184 184 184 185 186 186 188 192 199 209 221 232 246 260 270 280 290 298 304 307 308 310 313 315 317 317 317 317 317 316 315 315 314 314 314 314 315 316 317 316 315 314 313 313 314 314 313 312 310
175 173 171 171 171 172 173 174 175 176 178 179 180 181 182 184 184 184 184 183 182 182 183 183 184 184 188 195 203 211 223 239 255 267 278 288 297 303 306 308 309 311 314 316 317 317 317 317 317 317 316 316 315 315 315 316 317 318 320 319 317 315 313 312 312 311 310 308 307
173 172 171 170 171 172 173 174 176 178 180 181 182 183 183 184 183 183 182 182 182 182 183 182 183 186 192 199 205 217 232 250 264 276 287 295 301 305 307 308 310 312 315 316 317 317 317 317 317 317 317 316 316 316 317 318 319 321 322 320 317 314 311 309 308 307 307 306 306
171 170 170 170 171 172 173 175 178 181 182 183 183 183 183 182 181 180 180 180 181 181 182 181 184 188 195 201 210 227 247 262 274 285 294 300 303 305 306 308 310 312 314 316 317 317 317 317 317 317 317 317 317 318 318 319 321 322 322 320 316 311 308 305 305 305 305 306 306
169 169 169 169 170 172 175 179 182 183 184 183 182 181 180 179 179 178 178 178 179 179 180 181 185 190 197 205 221 242 259 273 285 294 299 302 303 304 306 308 310 312 314 316 316 317 317 317 317 317 317 317 318 319 319 321 322 322 322 320 315 310 306 304 304 304 305 305 305
167 167 168 169 172 175 179 183 184 183 182 181 180 179 179 178 177 176 177 177 178 180 181 184 189 197 207 221 239 259 274 286 294 299 301 302 303 305 308 309 310 312 314 316 317 317 317 317 317 317 317 318 319 319 320 321 322 323 322 319 314 309 305 303 303 304 304 304 304
167 168 169 172 176 179 182 183 182 180 179 178 178 178 178 177 176 176 177 178 180 182 185 189 198 210 226 243 261 276 286 294 298 299 299 301 304 307 309 310 311 312 315 317 318 318 317 317 318 318 318 319 320 320 321 322 323 323 322 318 312 306 303 301 302 302 302 302 301
168 169 172 175 179 180 180 179 178 177 177 177 177 178 177 177 176 177 178 180 182 185 190 198 210 227 247 264 277 286 293 295 296 296 298 302 306 309 310 311 312 313 316 318 318 318 318 318 318 319 319 320 320 321 322 323 324 324 321 315 308 304 301 300 300 300 299 299 299
169 171 174 177 178 178 177 176 176 176 176 176 176 176 176 175 176 177 179 182 186 193 202 215 233 251 267 278 286 290 292 292 292 295 300 304 307 310 312 313 312 314 316 318 319 318 318 318 319 320 320 321 321 322 323 324 325 323 319 312 305 301 299 298 298 298 298 298 299
171 174 176 177 176 175 174 174 175 176 176 175 174 174 173 174 175 178 181 187 194 207 222 236 252 267 278 285 289 290 290 291 294 298 302 306 309 312 314 314 314 315 316 318 319 319 319 319 320 321 321 322 322 323 324 325 324 322 317 310 304 299 297 297 297 298 298 298 298
174 176 176 175 174 173 173 174 175 175 175 174 173 172 173 174 177 182 189 199 214 227 238 248 260 271 279 283 285 285 288 292 297 301 304 307 310 313 315 316 315 315 317 318 320 320 320 321 321 321 322 323 323 324 325 325 324 321 317 310 304 300 298 297 298 299 299 297 295
177 177 176 174 173 173 174 174 174 174 173 173 172 172 174 177 183 192 206 218 228 236 244 253 263 271 276 279 280 284 289 294 300 303 306 309 311 313 315 316 315 316 317 318 320 321 321 321 322 322 323 323 324 325 325 325 323 321 317 311 306 302 299 300 300 299 297 294 291
177 176 175 174 174 173 173 173 172 172 171 171 172 174 178 185 194 204 213 221 228 237 249 258 267 273 276 279 282 286 291 296 301 305 308 310 312 314 315 316 316 316 317 318 320 321 322 322 323 323 324 324 325 325 325 324 323 320 316 312 307 304 302 302 302 299 295 292 292
174 174 174 174 173 172 171 170 169 169 170 171 174 179 186 193 199 205 211 218 231 245 257 265 270 273 277 282 287 291 295 298 302 306 309 311 313 314 315 316 316 316 317 319 320 322 323 323 324 324 324 325 325 326 325 324 323 320 317 312 308 305 303 302 300 297 294 294 298
171 170 170 170 170 169 168 166 166 168 171 175 179 183 187 190 194 201 211 226 242 255 263 268 270 274 280 286 292 297 300 302 305 307 310 312 313 314 315 316 316 317 319 320 322 323 324 325 325 325 325 325 326 326 326 325 324 321 317 311 307 304 302 300 298 298 299 302 306
166 166 166 166 165 165 165 165 166 168 172 176 177 180 183 187 196 209 224 239 249 255 261 265 271 277 284 291 296 301 305 307 309 310 312 313 314 315 316 317 318 319 321 322 324 325 325 325 325 325 326 326 326 326 327 326 324 320 314 309 305 303 302 302 303 304 306 309 311
Height
1441 1443 1445 1447 1448 1449 1450 1452 1454 1455 1456 1457 1459 1461 1462 1464 1466 1468 1470 1472 1474 1476 1477 1479 1480 1483 1484 1486 1487 1488 1489 1490 1491 1492 1492 1493 1493 1493 1494 1494 1494 1494 1494 1495 1495 1495 1495 1495 1494 1494 1494 1494 1494 1494 1494 1493 1493 1493 1493 1492 1492 1492 1491 1491 1490 1490 1489 1488 1488
1440 1442 1444 1446 1447 1448 1450 1451 1452 1454 1455 1457 1459 1460 1462 1464 1465 1467 1469 1471 1473 1474 1476 1478 1480 1482 1484 1485 1487 1488 1489 1490 1490 1491 1491 1492 1492 1492 1493 1493 1493 1493 1494 1494 1494 1494 1494 1494 1494 1494 1493 1493 1493 1493 1493 1493 1492 1492 1492 1491 1491 1491 1490 1490 1489 1489 1488 1488 1487
1439 1441 1443 1444 1446 1447 1449 1450 1451 1453 1454 1456 1458 1460 1461 1463 1464 1466 1468 1470 1471 1473 1475 1477 1480 1482 1484 1485 1486 1487 1488 1489 1489 1490 1490 1491 1491 1491 1492 1492 1492 1492 1493 1493 1493 1493 1493 1493 1493 1492 1492 1492 1492 1492 1492 1492 1491 1491 1491 1490 1490 1489 1489 1489 1488 1488 1487 1486 1486
1438 1440 1442 1444 1445 1446 1447 1449 1450 1452 1454 1455 1457 1459 1461 1463 1464 1465 1467 1469 1470 1472 1474 1477 1479 1481 1483 1484 1486 1487 1487 1488 1488 1489 1489 1490 1490 1490 1491 1491 1491 1491 1492 1492 1492 1492 1492 1492 1492 1491 1491 1491 1491 1491 1491 1491 1490 1490 1490 1489 1489 1489 1488 1488 1487 1487 1486 1485 1485
1437 1439 1441 1443 1444 1445 1447 1448 1449 1451 1453 1455 1457 1459 1460 1462 1463 1464 1466 1468 1469 1472 1474 1477 1479 1481 1483 1484 1485 1486 1487 1487 1487 1488 1489 1489 1489 1489 1490 1490 1490 1490 1491 1491 1491 1491 1491 1491 1491 1490 1490 1490 1490 1490 1490 1490 1489 1489 1489 1489 1488 1488 1487 1487 1486 1485 1485 1484 1484
1436 1439 1440 1442 1443 1444 1446 1447 1449 1450 1452 1454 1455 1457 1459 1460 1462 1464 1465 1467 1469 1472 1475 1477 1479 1481 1482 1484 1484 1485 1486 1486 1487 1487 1488 1488 1488 1489 1489 1489 1489 1489 1490 1490 1490 1490 1490 1490 1490 1490 1490 1490 1489 1489 1489 1489 1489 1488 1488 1487 1487 1486 1486 1485 1485 1484 1484 1483 1482
1436 1437 1439 1440 1442 1444 1445 1447 1448 1450 1452 1453 1455 1456 1458 1459 1461 1463 1464 1466 1469 1472 1475 1477 1479 1480 1482 1483 1484 1484 1485 1485 1486 1486 1487 1487 1488 1488 1488 1488 1489 1489 1489 1489 1489 1489 1489 1489 1489 1489 1489 1489 1489 1489 1488 1488 1488 1487 1487 1486 1485 1485 1485 1484 1484 1483 1483 1482 1481
1435 1437 1438 1439 1441 1443 1444 1446 1448 1449 1451 1453 1454 1456 1457 1459 1461 1462 1464 1467 1469 1472 1474 1477 1478 1480 1481 1482 1483 1484 1484 1484 1485 1486 1486 1486 1487 1487 1487 1487 1488 1488 1488 1488 1488 1488 1488 1488 1488 1488 1488 1488 1488 1488 1487 1487 1487 1486 1486 1485 1484 1484 1483 1483 1482 1482 1481 1480 1480
1434 1436 1437 1439 1441 1442 1444 1445 1447 1449 1451 1452 1454 1455 1457 1459 1460 1462 1464 1467 1470 1472 1474 1476 1478 1479 1480 1481 1482 1483 1483 1484 1484 1485 1485 1486 1486 1486 1486 1487 1487 1487 1487 1487 1487 1487 1487 1487 1487 1487 1487 1487 1487 1486 1486 1486 1486 1485 1485 1484 1484 1483 1482 1482 1481 1480 1480 1479 1478
1433 1434 1436 1438 1440 1442 1443 1445 1447 1449 1450 1452 1453 1454 1456 1458 1460 1463 1465 1468 1470 1472 1474 1475 1477 1479 1480 1480 1481 1482 1483 1483 1484 1484 1484 1485 1485 1485 1485 1486 1486 1486 1486 1486 1486 1486 1486 1486 1486 1486 1486 1486 1486 1485 1485 1485 1485 1484 1484 1483 1483 1482 1481 1480 1480 1479 1479 1478 1477
1432 1434 1436 1438 1439 1441 1443 1444 1446 1448 1449 1451 1452 1454 1455 1458 1460 1463 1465 1468 1470 1472 1474 1475 1477 1478 1479 1479 1480 1481 1482 1482 1483 1483 1484 1484 1484 1484 1485 1485 1485 1485 1485 1485 1485 1485 1485 1485 1485 1485 1485 1485 1484 1484 1484 1484 1484 1483 1483 1482 1481 1481 1480 1479 1479 1478 1477 1476 1476
1432 1434 1435 1437 1439 1440 1442 1444 1446 1447 1449 1450 1451 1453 1455 1458 1460 1463 1465 1468 1469 1471 1473 1474 1476 1477 1478 1479 1479 1480 1481 1482 1482 1483 1483 1483 1484 1484 1484 1484 1484 1484 1484 1484 1484 1484 1484 1484 1484 1484 1484 1484 1484 1483 1483 1483 1482 1482 1481 1481 1480 1479 1479 1478 1478 1477 1476 1475 1474
1432 1433 1435 1436 1438 1440 1442 1443 1445 1446 1447 1449 1450 1453 1455 1458 1460 1463 1465 1467 1469 1470 1472 1474 1475 1476 1477 1478 1479 1479 1480 1481 1481 1482 1482 1483 1483 1483 1484 1484 1484 1484 1484 1484 1484 1484 1484 1484 1484 1483 1483 1483 1483 1482 1482 1482 1481 1481 1480 1480 1479 1479 1478 1477 1476 1476 1475 1474 1473
1431 1433 1434 1436 1438 1439 1441 1442 1444 1445 1447 1448 1450 1453 1455 1458 1460 1463 1465 1466 1468 1470 1472 1473 1474 1475 1476 1477 1478 1479 1479 1480 1480 1481 1481 1482 1482 1483 1483 1483 1483 1483 1483 1483 1483 1483 1483 1483 1483 1482 1482 1482 1482 1481 1481 1480 1480 1480 1479 1479 1478 1477 1477 1476 1475 1474 1474 1472 1471
1431 1432 1434 1435 1437 1439 1440 1441 1443 1444 1446 1448 1450 1453 1456 1458 1460 1462 1464 1466 1468 1469 1471 1472 1473 1474 1475 1476 1477 1478 1478 1479 1479 1480 1481 1481 1482 1482 1482 1482 1482 1482 1482 1482 1482 1482 1482 1482 1482 1482 1481 1481 1481 1480 1480 1479 1479 1479 1478 1477 1477 1476 1475 1475 1474 1473 1472 1471 1470
1430 1432 1434 1435 1436 1438 1439 1441 1443 1444 1446 1449 1451 1453 1455 1458 1459 1462 1464 1466 1467 1469 1470 1471 1472 1473 1474 1475 1476 1477 1478 1478 1479 1479 1480 1480 1481 1481 1481 1481 1482 1482 1482 1481 1481 1481 1481 1481 1481 1481 1480 1480 1480 1479 1479 1479 1478 1477 1477 1476 1475 1475 1474 1473 1472 1472 1471 1470 1469
1430 1431 1433 1434 1436 1437 1439 1440 1442 1444 1446 1449 1451 1453 1455 1457 1459 1461 1463 1465 1467 1468 1469 1471 1472 1473 1474 1474 1475 1476 1477 1478 1478 1479 1479 1480 1480 1480 1481 1481 1481 1481 1481 1481 1480 1480 1480 1480 1480 1479 1479 1479 1479 1478 1478 1477 1477 1476 1475 1475 1474 1473 1473 1472 1471 1470 1469 1468 1467
1429 1431 1432 1434 1435 1437 1438 1440 1442 1444 1446 1449 1451 1453 1455 1457 1459 1461 1463 1465 1466 1468 1469 1470 1471 1472 1473 1474 1474 1475 1476 1477 1477 1478 1479 1479 1479 1480 1480 1480 1480 1480 1480 1480 1479 1479 1479 1479 1479 1479 1478 1478 1478 1477 1477 1476 1475 1475 1474 1474 1473 1472 1471 1470 1469 1469 1468 1467 1466
1429 1431 1432 1434 1435 1437 1438 1440 1442 1444 1446 1448 1450 1453 1455 1457 1459 1461 1463 1464 1466 1467 1468 1469 1470 1472 1473 1473 1474 1475 1475 1476 1477 1477 1478 1479 1479 1479 1479 1479 1479 1479 1479 1479 1479 1479 1478 1478 1478 1477 1477 1477 1476 1476 1475 1474 1474 1473 1473 1472 1471 1470 1469 1469 1468 1467 1466 1465 1464
1429 1431 1432 1434 1435 1437 1439 1440 1443 1444 1446 1448 1450 1453 1455 1457 1459 1461 1462 1464 1465 1467 1468 1469 1470 1471 1472 1473 1473 1474 1475 1475 1476 1477 1477 1478 1478 1478 1479 1479 1479 1479 1478 1478 1478 1478 1477 1477 1477 1476 1476 1475 1475 1474 1474 1473 1473 1472 1471 1470 1470 1469 1468 1467 1466 1465 1464 1464 1462
1429 1431 1432 1434 1435 1437 1439 1441 1444 1445 1447 1449 1451 1453 1455 1457 1459 1461 1462 1464 1465 1466 1468 1469 1469 1470 1471 1472 1473 1474 1474 1475 1475 1476 1477 1477 1477 1478 1478 1478 1478 1477 1477 1477 1477 1476 1476 1476 1475 1475 1474 1474 1474 1473 1472 1472 1471 1470 1470 1469 1469 1468 1467 1466 1465 1464 1463 1462 1461
1429 1431 1432 1433 1435 1437 1439 1442 1444 1446 1448 1449 1451 1453 1455 1457 1459 1461 1462 1464 1464 1466 1467 1468 1469 1470 1470 1471 1472 1473 1474 1474 1475 1475 1476 1476 1476 1477 1477 1477 1477 1476 1476 1476 1476 1475 1475 1475 1474 1474 1474 1473 1472 1472 1471 1471 1470 1469 1469 1468 1467 1466 1465 1464 1464 1463 1462 1460 1459
1429 1430 1431 1433 1435 1437 1440 1442 1445 1447 1448 1450 1452 1454 1456 1458 1459 1461 1462 1463 1464 1465 1466 1467 1468 1469 1470 1471 1472 1472 1473 1474 1474 1475 1475 1475 1476 1476 1476 1476 1476 1475 1475 1475 1475 1474 1474 1474 1473 1473 1472 1472 1471 1471 1470 1469 1469 1468 1467 1466 1466 1465 1464 1463 1462 1461 1460 1459 1458
1428 1429 1431 1433 1435 1438 1441 1443 1445 1447 1449 1451 1453 1454 1456 1458 1459 1460 1462 1463 1464 1465 1466 1467 1468 1469 1469 1470 1471 1472 1472 1473 1473 1474 1474 1475 1475 1475 1475 1475 1475 1474 1474 1474 1474 1474 1473 1473 1472 1472 1471 1471 1470 1469 1469 1468 1468 1467 1466 1465 1464 1463 1462 1461 1460 1459 1458 1457 1456
1428 1429 1431 1434 1436 1439 1441 1444 1446 1448 1449 1451 1453 1455 1457 1458 1459 1460 1462 1463 1464 1465 1466 1467 1468 1469 1469 1470 1470 1471 1472 1472 1473 1473 1474 1474 1474 1474 1474 1474 1474 1474 1473 1473 1473 1472 1472 1472 1471 1471 1470 1469 1469 1468 1467 1467 1466 1465 1464 1463 1462 1461 1460 1459 1458 1457 1456 1455 1454
1429 1430 1432 1435 1437 1440 1442 1444 1446 1449 1450 1452 1454 1456 1457 1458 1459 1460 1462 1463 1464 1465 1466 1467 1467 1468 1469 1469 1470 1470 1471 1471 1472 1473 1473 1473 1473 1473 1473 1473 1473 1473 1472 1472 1472 1471 1471 1470 1470 1469 1469 1468 1467 1466 1466 1465 1464 1463 1462 1461 1460 1459 1458 1457 1456 1456 1455 1454 1453
1429 1431 1434 1436 1439 1441 1443 1445 1447 1449 1451 1453 1454 1456 1457 1458 1459 1461 1462 1463 1464 1464 1465 1466 1467 1468 1468 1469 1469 1470 1470 1471 1471 1472 1472 1472 1472 1472 1472 1472 1472 1472 1471 1471 1471 1470 1470 1469 1469 1468 1467 1466 1466 1465 1464 1463 1462 1461 1460 1459 1459 1458 1457 1456 1455 1454 1453 1452 1451
1430 1432 1435 1437 1439 1442 1444 1446 1448 1450 1452 1454 1455 1456 1457 1459 1460 1461 1462 1463 1464 1464 1465 1466 1467 1467 1468 1468 1469 1469 1470 1470 1471 1471 1471 1471 1471 1471 1471 1471 1471 1471 1470 1470 1470 1469 1469 1468 1467 1466 1466 1465 1464 1463 1462 1461 1460 1459 1459 1458 1457 1456 1455 1454 1454 1453 1452 1451 1450
1431 1434 1436 1438 1440 1443 1445 1447 1449 1451 1452 1454 1455 1456 1458 1459 1460 1461 1462 1463 1464 1464 1465 1466 1466 1467 1467 1468 1468 1469 1469 1469 1470 1470 1470 1470 1471 1471 1471 1470 1470 1469 1469 1469 1469 1468 1467 1467 1466 1465 1464 1464 1463 1462 1461 1460 1459 1458 1457 1456 1455 1455 1454 1453 1452 1451 1450 1449 1448
1432 1434 1437 1439 1441 1444 1446 1448 1450 1451 1453 1454 1455 1457 1458 1459 1460 1461 1462 1463 1463 1464 1465 1465 1466 1466 1467 1467 1468 1468 1469 1469 1469 1469 1469 1470 1470 1470 1470 1469 1469 1469 1469 1468 1468 1467 1466 1465 1465 1464 1463 1462 1461 1460 1459 1458 1457 1456 1455 1454 1454 1453 1452 1451 1450 1449 1449 1448 1447
1433 1435 1437 1439 1442 1444 1446 1448 1450 1452 1453 1454 1455 1457 1458 1459 1460 1461 1462 1462 1463 1464 1464 1465 1465 1466 1466 1467 1467 1467 1468 1468 1468 1469 1469 1469 1469 1469 1469 1469 1468 1468 1467 1467 1466 1466 1465 1464 1463 1463 1462 1461 1459 1459 1458 1456 1455 1454 1454 1453 1452 1451 1451 1450 1449 1448 1447 1446 1445
1433 1435 1437 1439 1442 1444 1446 1449 1450 1452 1453 1454 1456 1457 1458 1459 1460 1461 1462 1462 1463 1464 1464 1464 1465 1465 1465 1466 1466 1467 1467 1467 1468 1468 1469 1469 1469 1468 1468 1468 1467 1467 1466 1466 1465 1464 1464 1463 1462 1461 1460 1459 1458 1457 1456 1455 1454 1453 1452 1451 1450 1450 1449 1448 1447 1446 1446 1445 1444
1433 1434 1437 1439 1442 1444 1446 1448 1450 1452 1453 1454 1456 1457 1458 1459 1460 1461 1461 1462 1463 1463 1464 1464 1464 1465 1465 1465 1465 1466 1466 1467 1467 1468 1468 1468 1468 1468 1467 1467 1466 1465 1465 1465 1464 1463 1462 1461 1460 1459 1459 1457 1456 1455 1454 1453 1452 1451 1450 1450 1449 1448 1448 1447 1446 1445 1444 1444 1443
1433 1435 1437 1440 1442 1444 1446 1448 1450 1452 1453 1454 1456 1457 1458 1459 1460 1460 1461 1462 1462 1463 1463 1464 1464 1464 1464 1464 1465 1465 1466 1466 1467 1467 1467 1467 1467 1467 1466 1465 1465 1464 1464 1464 1463 1462 1461 1460 1459 1458 1457 1456 1454 1454 1452 1451 1450 1449 1449 1448 1448 1447 1446 1445 1445 1444 1443 1442 1441
1434 1436 1439 1441 1443 1445 1447 1449 1450 1452 1453 1454 1456 1457 1458 1459 1459 1460 1461 1461 1462 1462 1463 1463 1463 1464 1464 1464 1464 1465 1465 1466 1466 1466 1466 1466 1466 1466 1465 1464 1464 1463 1462 1462 1462 1461 1459 1458 1457 1456 1455 1454 1453 1452 1451 1449 1449 1448 1448 1447 1446 1446 1445 1444 1444 1443 1442 1441 1440
1436 1438 1440 1442 1444 1446 1447 1449 1450 1452 1454 1455 1456 1457 1458 1459 1459 1460 1460 1461 1461 1462 1462 1462 1463 1463 1463 1464 1464 1465 1465 1465 1465 1465 1465 1465 1465 1465 1464 1464 1463 1462 1461 1460 1460 1459 1458 1457 1456 1454 1453 1452 1451 1450 1449 1448 1447 1446 1446 1445 1445 1444 1444 1443 1442 1441 1441 1440 1439
1438 1440 1442 1444 1445 1447 1448 1449 1451 1452 1454 1455 1456 1457 1458 1458 1459 1459 1460 1460 1461 1461 1461 1462 1462 1463 1463 1464 1464 1464 1464 1465 1465 1464 1464 1464 1464 1464 1463 1463 1462 1461 1459 1459 1458 1458 1456 1455 1454 1453 1452 1450 1449 1448 1447 1446 1445 1445 1444 1444 1444 1443 1442 1442 1441 1440 1439 1439 1437
1439 1441 1443 1444 1446 1447 1449 1450 1451 1453 1454 1455 1456 1457 1457 1458 1459 1459 1459 1460 1460 1461 1461 1461 1462 1462 1463 1463 1464 1464 1464 1464 1464 1464 1464 1463 1463 1463 1462 1462 1461 1459 1459 1458 1457 1456 1455 1454 1452 1451 1450 1449 1448 1446 1445 1445 1444 1444 1443 1443 1442 1441 1441 1440 1440 1439 1438 1437 1436
1441 1443 1444 1445 1447 1448 1449 1450 1451 1453 1454 1454 1455 1456 1457 1458 1458 1459 1459 1459 1460 1460 1461 1461 1461 1462 1462 1463 1463 1463 1463 1463 1463 1463 1463 1462 1462 1461 1461 1460 1459 1458 1457 1456 1455 1454 1453 1452 1451 1449 1448 1447 1446 1445 1444 1444 1443 1442 1442 1441 1441 1440 1440 1439 1439 1437 1436 1435 1434
1442 1444 1445 1446 1447 1448 1449 1450 1452 1453 1454 1454 1455 1456 1457 1457 1458 1458 1459 1459 1459 1460 1460 1461 1461 1462 1462 1462 1462 1462 1462 1462 1462 1462 1462 1461 1461 1460 1459 1459 1458 1457 1456 1455 1454 1453 1451 1450 1449 1448 1447 1445 1444 1444 1443 1442 1441 1441 1441 1440 1440 1439 1438 1437 1437 1435 1434 1433 1433
1443 1444 1445 1446 1448 1449 1449 1450 1452 1453 1454 1454 1455 1456 1456 1457 1457 1458 1458 1459 1459 1459 1460 1460 1461 1461 1461 1462 1462 1462 1461 1461 1461 1460 1460 1460 1459 1459 1458 1457 1457 1456 1454 1454 1452 1451 1450 1449 1448 1446 1445 1444 1443 1442 1442 1441 1440 1440 1440 1439 1439 1438 1436 1435 1434 1434 1433 1432 1431